sat.trackr.live / text

‹ back to catalog

STARLINK-34894

NORAD 65753 · 2025-216V

PAYLOAD ACTIVE UNKNOWN

§ Identity

Operator
Country
US
Launch date
2025-09-25
Launch site
AFETR
Launch vehicle
Mass (kg)
RCS (m²)

Purposes: comms

External: N2YO · Heavens-Above · Gunter

§ Orbital elements

Epoch: 2026-09-20T09:34:35.572512Z

Period
93.85 min
Inclination
53.1597°
Eccentricity
0.0001369
Mean motion
15.34401465 rev/d
Perigee alt
461.8 km
Apogee alt
463.6 km
Semi-major
6,840.8 km
B*
4.0584e-4
RAAN
146.4175°
Arg perigee
88.8452°
Mean anomaly
271.2708°
Rev number
5,635

§ Raw data

STARLINK-348941 65753U 25216V   26263.39902283  .00013361  00000+0  40584-3 0  99942 65753  53.1597 146.4175 0001369  88.8452 271.2708 15.34401465 56359

JSON: /api/v1/satellites/65753 · /tle

For live sub-satellite position, see the globe view (requires WebGL).

§ Visibility from observer

Set your observer location to see the next 7 days of passes ≥ 10°. The values pass through the URL so the page stays shareable.

No JS? Fill the form by hand. The geolocation button needs JavaScript.